Location: Newark
(25.6108°S, 54.5803°W)
Time: 07:27:25
(UTC+00:00)

Courier 1B - Pass Details

Date: 05 November 2020
Orbit: 962 x 1209 km, 28.3° (Epoch: 02 December)

Event Time Altitude Azimuth Distance (km) Brightness Sun altitude
Rises 05:18:22 0° 260° (W) 4,054 - -39.8°
Reaches altitude 10° 05:21:22 10° 268° (W) 3,114 - -39.4°
Maximum altitude 05:28:28 39° 333° (NNW) 1,734 - -38.4°
Drops below altitude 10° 05:35:37 10° 39° (NE) 3,134 - -37.3°
Exits shadow 05:37:58 - 45° (NE) 3,859 10.6 -37.0°
Sets 05:38:40 0° 46° (NE) 4,083 10.7 -36.9°
